Location: Eaton
(41.3139°N, 82.0207°W)
Time: 11:55:01
(UTC+00:00)

Meteor 1-21 Rocket - Pass Details

Date: 17 June 2021
Orbit: 834 x 906 km, 81.2° (Epoch: 26 July)

Event Time Altitude Azimuth Distance (km) Brightness Sun altitude
Exits shadow 04:46:49 58° 134° (SE) 984 4.2 -24.6°
Maximum altitude 04:47:32 64° 96° (E) 940 4.3 -24.6°
Drops below altitude 10° 04:53:10 10° 16° (NNE) 2,513 7.5 -24.8°
Sets 04:55:39 0° 13° (NNE) 3,466 8.5 -24.8°
